Back to catalog

TITAN 3D DEB

AlivePO
NORAD 6823·DEBRIS·🇺🇸 United States

Launched Oct 10, 1972 from Vandenberg Space Force Base

Loading…

Next Passes (next 24 hours)

TLE

FreshSource: Space-Track

Epoch: Sep 13, 2026, 03:03 UTC

1 06823U 72079D   26256.12721846 -.00000020  00000-0 -43469-4 0  9990
2 06823  95.8079 313.7327 0053199  91.2933 297.1488 12.54880377468764

Track TITAN 3D DEB in real time with AllMySat

Download on the App Store